Home   Weather   Knox   Past weeks

Flag for USA Past Weather in Knox, Indiana, USA — Yesterday and Last 2 Weeks

Now
35 °F

Overcast.


Feels Like: 29 °F
Forecast: 26 / 37 °F
Wind: 8 mph from West

Location: Porter County Municipal Airport

Current Time: Dec 3, 2016 at 3:55:33 am

Latest Report: Dec 3, 2016 at 1:56 am


Visibility: 10 mi

Pressure: 30.34 "Hg

Humidity: 67%

Dew Point: 25 °F

Location of KnoxLocation

Past Weather in Knox — Graph

°F

Knox Temperature Yesterday

Maximum temperature yesterday: 40 °F (at 10:56 am)
Minimum temperature yesterday: 36 °F (at 12:56 am)
Average temperature yesterday: 38 °F

High & Low Weather Summary for the Past Weeks

 TemperatureHumidityPressure
High69 °F (Nov 18, 10:56 am)97% (Nov 27, 11:56 am)30.38 "Hg (Nov 27, 11:56 am)
Low26 °F (Nov 22, 2:56 am)49% (Nov 21, 11:56 am)29.19 "Hg (Nov 28, 8:56 pm)
Average40 °F76%30.04 "Hg
* Reported Nov 18 1:56 am — Dec 3 1:56 am, Knox, Weather by CustomWeather, © 2016

Note: Actual official high and low records may vary slightly from our data, if they occured in-between our weather recording intervals... More about our weather records

Advertising

Knox Weather History for the Previous 24 Hours

Scroll right to see more
 ConditionsComfort  
Time TempWeatherWind HumidityBarometerVisibility
1:56 am
Sat, Dec 3
35 °FOvercast.8 mph67%30.34 "Hg10 mi
12:56 am35 °FOvercast.9 mph64%30.32 "Hg10 mi
11:56 pm
Fri, Dec 2
36 °FOvercast.10 mph64%30.32 "Hg10 mi
10:56 pm36 °FOvercast.12 mph64%30.33 "Hg10 mi
9:56 pm37 °FOvercast.8 mph65%30.32 "Hg10 mi
8:56 pm38 °FOvercast.9 mph63%30.31 "Hg10 mi
7:56 pm38 °FOvercast.9 mph65%30.31 "Hg10 mi
6:56 pm39 °FMostly cloudy.9 mph65%30.29 "Hg10 mi
5:56 pm39 °FOvercast.5 mph70%30.27 "Hg10 mi
4:56 pm39 °FOvercast.6 mph76%30.26 "Hg10 mi
3:56 pm39 °FOvercast.6 mph73%30.24 "Hg10 mi
2:56 pm40 °FMore clouds than sun.6 mph68%30.22 "Hg10 mi
1:56 pm40 °FOvercast.8 mph68%30.21 "Hg10 mi
12:56 pm40 °FOvercast.10 mph70%30.19 "Hg10 mi
11:56 am40 °FMore clouds than sun.15 mph70%30.18 "Hg10 mi
10:56 am40 °FOvercast.10 mph70%30.17 "Hg10 mi
9:56 am39 °FOvercast.12 mph76%30.17 "Hg10 mi
8:56 am38 °FOvercast.8 mph83%30.16 "Hg10 mi
7:56 am37 °FOvercast.10 mph86%30.15 "Hg10 mi
6:56 am37 °FOvercast.8 mph86%30.12 "Hg10 mi
5:56 am37 °FOvercast.10 mph86%30.11 "Hg10 mi
4:56 am37 °FOvercast.13 mph86%30.10 "Hg10 mi
3:56 am37 °FMostly cloudy.9 mph86%30.07 "Hg10 mi
Weather by CustomWeather, © 2016

See weather overviewHow to use our weather pages